TimeEDT,TemperatureF,Dew PointF,Humidity,Sea Level PressureIn,VisibilityMPH,Wind Direction,Wind SpeedMPH,Gust SpeedMPH,PrecipitationIn,Events,Conditions,WindDirDegrees,DateUTC
12:53 AM,75.0,68.0,79,29.65,7.0,North,17.3,26.5,0.08,Rain,Light Rain,360,2012-10-26 04:53:00
1:53 AM,75.9,68.0,76,29.61,10.0,North,17.3,29.9,0.00,,Overcast,350,2012-10-26 05:53:00
2:53 AM,75.9,68.0,76,29.60,10.0,North,18.4,31.1,N/A,,Overcast,350,2012-10-26 06:53:00
3:53 AM,77.0,66.9,71,29.60,10.0,NNW,15.0,28.8,N/A,,Overcast,340,2012-10-26 07:53:00
4:53 AM,75.9,66.9,74,29.59,10.0,NNW,18.4,28.8,0.01,,Overcast,340,2012-10-26 08:53:00
5:53 AM,75.9,66.9,74,29.60,10.0,NNW,18.4,28.8,N/A,,Overcast,340,2012-10-26 09:53:00
6:53 AM,77.0,66.0,69,29.60,10.0,NNW,13.8,27.6,N/A,,Overcast,340,2012-10-26 10:53:00
7:53 AM,75.9,64.9,69,29.62,10.0,North,17.3,28.8,N/A,,Mostly Cloudy,350,2012-10-26 11:53:00
9:53 AM,75.9,64.9,69,29.65,10.0,NNW,18.4,28.8,N/A,,Overcast,330,2012-10-26 13:53:00
10:53 AM,77.0,66.0,69,29.66,10.0,NNW,12.7,25.3,N/A,,Overcast,330,2012-10-26 14:53:00
11:53 AM,78.1,66.0,66,29.66,10.0,NNW,18.4,28.8,N/A,,Overcast,330,2012-10-26 15:53:00
12:53 PM,77.0,66.9,71,29.64,9.0,NNW,19.6,27.6,0.00,Rain,Light Rain,330,2012-10-26 16:53:00
1:53 PM,78.1,69.1,74,29.62,10.0,NW,15.0,24.2,0.00,,Mostly Cloudy,310,2012-10-26 17:53:00
2:53 PM,78.1,68.0,71,29.60,10.0,NW,12.7,21.9,0.00,,Mostly Cloudy,320,2012-10-26 18:53:00
3:53 PM,81.0,68.0,65,29.58,10.0,NW,12.7,20.7,N/A,,Scattered Clouds,310,2012-10-26 19:53:00
4:53 PM,81.0,68.0,65,29.59,10.0,NW,15.0,25.3,N/A,,Scattered Clouds,310,2012-10-26 20:53:00
5:53 PM,80.1,68.0,67,29.59,10.0,NNW,18.4,25.3,N/A,,Mostly Cloudy,330,2012-10-26 21:53:00
6:53 PM,75.0,69.1,82,29.61,2.0,NW,11.5,24.2,0.03,Rain,Light Rain,320,2012-10-26 22:53:00
7:02 PM,75.2,68.0,78,29.61,6.0,NNW,12.7,23.0,0.01,Rain,Light Rain,330,2012-10-26 23:02:00
7:53 PM,75.0,66.9,76,29.62,10.0,NNW,10.4,19.6,0.01,,Mostly Cloudy,330,2012-10-26 23:53:00
8:53 PM,75.9,66.9,74,29.64,10.0,NW,10.4,-,N/A,,Partly Cloudy,310,2012-10-27 00:53:00
9:53 PM,75.9,66.9,74,29.65,10.0,WNW,10.4,19.6,N/A,,Clear,300,2012-10-27 01:53:00
10:14 PM,77.0,68.0,74,29.66,10.0,NW,9.2,-,N/A,,Mostly Cloudy,310,2012-10-27 02:14:00
10:50 PM,77.0,69.8,78,29.65,10.0,NW,5.8,-,N/A,,Partly Cloudy,320,2012-10-27 02:50:00
10:53 PM,77.0,69.1,76,29.65,10.0,NW,4.6,-,N/A,,Scattered Clouds,310,2012-10-27 02:53:00
11:53 PM,77.0,69.1,76,29.65,10.0,NW,10.4,-,0.03,,Clear,320,2012-10-27 03:53:00